Lapse_Rate
7.4 7.3 7.5 7.7 7.6 7.5 7.5 7.4 7.0 7.2 6.8 6.8 6.8 6.9 6.8 6.8 6.6 6.7 6.5 6.3 6.1 6.3 6.5 6.4 6.4 6.4 6.3 6.4 6.7 6.8 6.8 6.9
7.0 7.0 7.4 7.8 7.8 7.6 7.7 7.3 7.0 6.9 6.8 6.6 6.3 6.5 6.5 6.5 6.4 6.2 6.3 6.0 6.3 6.4 6.2 6.4 6.3 6.3 6.3 6.5 6.6 6.4 6.5 6.7
7.6 7.3 6.6 7.4 7.7 7.7 7.6 7.4 6.7 6.8 6.8 6.5 6.3 6.2 6.2 6.3 6.1 6.2 6.2 6.2 6.1 5.9 5.9 5.9 6.1 6.3 6.3 6.3 6.1 6.1 6.2 6.3
7.7 7.5 6.9 7.0 7.4 7.5 7.4 7.4 7.1 6.8 6.8 6.6 6.2 6.2 6.2 6.2 6.0 6.1 6.0 5.9 5.8 5.8 5.8 5.9 6.1 6.2 6.2 6.1 6.0 5.9 5.9 6.2
7.7 7.6 7.2 7.1 7.4 7.3 7.3 7.5 7.3 6.9 6.7 6.8 6.4 6.2 6.1 6.1 6.1 6.1 5.9 5.6 5.5 5.6 5.8 6.0 6.1 6.0 6.0 6.0 5.9 5.9 6.0 6.0
7.8 7.7 7.5 7.2 7.2 7.4 7.3 7.1 6.9 6.9 6.8 6.8 6.6 6.4 6.1 6.2 6.0 6.1 6.1 6.0 6.0 6.0 5.8 5.8 5.9 6.1 6.0 6.0 5.9 5.9 5.8 5.7
7.4 7.3 7.3 7.1 7.3 7.4 7.3 6.9 7.0 7.1 6.8 6.7 6.5 6.0 6.1 6.0 6.0 5.9 5.7 5.5 5.5 5.5 5.5 5.9 5.6 5.4 5.5 5.6 5.5 5.5 5.4 5.3
7.3 7.1 7.0 7.3 7.7 7.4 7.3 7.1 7.0 6.9 6.7 6.4 6.4 6.2 6.2 6.2 6.0 5.9 5.8 5.6 5.9 5.7 5.7 5.7 5.8 5.8 5.6 5.7 5.7 5.7 5.5 5.5
7.4 7.1 6.9 7.1 7.4 7.6 7.3 6.9 6.9 6.8 6.5 6.4 6.5 6.4 6.4 6.4 6.3 6.2 6.1 6.2 6.1 5.9 6.1 5.6 6.0 5.8 5.8 5.7 5.7 5.5 5.4 5.3
7.3 7.2 7.4 7.2 7.2 7.1 6.8 6.6 6.2 6.5 6.6 6.7 6.7 6.7 6.6 6.5 6.3 6.3 6.3 6.4 6.3 6.2 6.2 5.9 5.6 5.8 5.5 5.5 5.4 5.4 5.3 5.2
7.2 7.1 7.1 7.0 6.8 6.6 6.6 6.5 6.4 6.5 6.7 6.8 6.8 6.8 6.8 6.8 6.7 6.6 6.5 6.6 6.1 6.0 5.9 5.5 5.6 5.3 5.3 5.3 5.3 5.0 4.9 4.9
7.2 6.9 6.9 7.0 7.0 6.9 6.8 6.5 6.2 6.4 6.7 6.9 7.0 6.9 6.7 6.5 6.4 6.4 6.5 6.4 6.3 5.4 4.9 5.0 5.1 5.0 5.2 4.9 5.0 4.7 4.8 4.6
7.0 6.8 6.8 6.9 6.9 7.1 7.2 7.0 6.7 6.4 6.1 6.5 6.9 6.9 6.5 6.6 6.6 6.6 6.4 6.3 6.1 5.3 5.0 4.9 4.9 4.8 5.1 4.8 5.1 5.0 4.8 4.6
7.1 6.9 6.7 6.5 6.3 6.6 7.0 7.1 6.8 6.5 6.3 6.4 6.3 6.4 6.2 6.5 6.4 6.1 6.1 5.7 4.9 4.6 4.5 4.4 4.6 4.5 5.0 5.1 5.1 4.7 4.6 4.8
7.1 6.9 6.6 6.5 6.3 6.0 6.0 6.4 6.7 6.8 6.8 6.6 6.5 6.2 6.2 6.0 5.9 6.0 5.4 4.5 3.8 3.6 3.9 4.3 4.3 4.6 5.1 4.9 4.8 4.6 4.7 4.8
7.3 7.1 6.9 6.7 6.6 6.5 6.5 6.5 6.5 6.5 6.4 6.1 6.0 6.0 5.9 6.2 5.7 5.5 5.3 4.4 3.4 4.0 4.0 3.8 4.1 4.9 5.0 4.6 4.6 4.9 4.7 4.3
7.6 7.2 7.2 7.0 7.1 7.0 6.8 6.4 6.4 6.3 6.3 6.0 6.0 5.9 6.1 6.0 5.7 5.5 4.6 4.1 3.8 3.9 3.9 4.2 4.5 4.7 4.8 4.7 4.7 4.6 4.3 4.5
7.3 7.4 7.1 6.9 7.0 7.2 6.8 6.6 6.7 6.6 6.5 6.2 6.2 6.1 6.0 6.1 5.6 4.5 3.9 3.8 4.1 3.5 3.7 3.9 4.7 5.1 5.1 4.9 4.8 4.8 5.1 5.1
7.2 7.2 6.9 6.8 6.7 6.9 7.1 6.9 6.7 6.3 6.3 6.4 6.3 6.3 6.2 5.5 5.2 4.1 4.1 4.2 3.8 3.5 4.1 4.6 5.0 5.3 5.1 4.8 5.2 5.5 5.3 5.4
Wind_Speed
14 17 16 15 13 15 14 10 9 7 8 9 6 5 9 13 14 14 13 12 11 14 11 8 8 6 3 3 3 3 2 2
13 11 16 16 13 14 16 15 8 7 4 4 4 4 4 4 11 15 13 11 8 10 7 5 7 5 3 3 2 3 2 3
8 9 10 18 17 14 15 16 13 9 7 4 4 4 3 5 11 9 14 11 9 11 9 8 7 3 5 3 3 1 1 1
9 7 12 15 17 15 14 14 13 10 8 4 4 4 4 2 3 4 7 11 13 11 8 8 5 4 2 0 1 2 2 2
13 9 10 13 9 13 15 14 12 10 8 7 10 5 5 4 4 4 6 13 10 8 9 9 7 4 1 1 1 2 3 2
15 11 10 14 12 12 11 11 12 8 9 11 8 5 3 4 4 7 5 8 11 4 11 13 9 6 4 4 4 5 1 1
15 10 13 11 11 11 11 10 6 7 8 9 9 9 8 8 7 6 3 3 7 12 12 10 8 6 4 3 4 3 3 3
14 15 12 13 11 10 8 8 7 8 8 8 8 8 8 9 7 5 6 4 3 5 7 6 5 8 10 9 5 4 4 3
15 15 12 12 9 8 8 11 11 8 8 8 7 8 5 5 6 5 4 4 4 9 8 9 8 7 6 7 3 3 4 3
9 9 10 11 10 8 9 10 9 9 8 7 7 7 8 6 6 5 4 4 4 8 9 6 5 5 6 7 4 4 3 1
8 9 8 7 8 7 7 7 9 8 9 7 7 7 7 6 5 6 4 6 4 6 5 5 2 4 6 4 3 4 5 3
9 8 11 10 9 8 7 6 8 8 10 7 8 6 5 6 4 5 5 5 5 4 2 1 2 4 1 2 2 4 4 3
11 11 12 12 11 10 9 7 9 10 9 9 8 7 5 5 4 5 6 6 6 4 2 1 3 2 2 2 2 2 2 3
11 11 13 13 12 12 10 8 9 10 10 10 8 6 6 5 3 4 5 5 5 3 1 2 5 4 2 4 2 2 2 1
13 13 14 16 13 12 11 9 12 10 11 9 7 6 6 4 2 4 4 3 4 1 2 4 5 4 4 3 3 4 4 3
7 11 8 8 10 8 7 7 9 13 10 9 7 6 6 5 5 5 4 4 2 2 4 6 4 5 3 5 5 5 3 1
8 8 8 10 9 10 9 10 12 12 11 10 7 7 5 4 4 3 2 2 3 4 4 5 5 3 8 8 6 4 2 0
7 5 7 7 10 9 9 10 11 9 8 7 7 8 6 5 4 2 3 4 5 6 6 5 5 6 12 11 9 4 3 3
8 6 4 6 8 12 13 12 10 10 10 9 10 8 7 5 5 6 6 5 5 5 5 6 5 5 14 12 10 5 3 4
Wind_Direction
153 147 149 145 145 148 131 128 122 100 107 101 102 127 157 160 156 158 155 139 144 134 126 108 81 95 81 69 88 39 85 54
163 156 145 147 146 150 143 140 126 135 126 146 176 174 164 177 165 154 146 148 124 116 99 104 89 94 93 76 114 67 348 13
137 139 136 154 160 146 146 152 162 172 172 189 160 151 180 168 154 150 142 144 128 106 100 93 82 74 59 61 74 359 333 17
155 155 141 154 163 150 154 156 165 181 192 157 125 133 106 110 139 115 151 140 124 127 132 126 112 104 89 45 278 132 209 292
163 165 141 160 151 154 157 160 169 191 195 157 155 162 167 180 154 141 150 136 138 148 157 156 147 132 112 291 200 226 162 240
168 170 156 149 141 156 155 176 185 183 187 163 164 159 161 146 131 139 154 165 170 152 81 84 72 63 37 34 12 0 47 136
164 153 131 139 144 153 170 173 185 182 164 166 158 148 141 130 141 158 153 108 97 95 90 85 78 60 30 358 347 321 270 237
143 144 151 160 171 176 166 168 184 160 136 125 124 140 142 144 145 134 132 134 117 109 86 72 54 33 17 4 351 332 304 260
156 166 164 161 163 181 179 175 163 144 133 130 123 125 119 113 126 126 116 123 125 106 96 69 46 27 5 343 323 309 329 359
142 135 146 151 150 161 153 149 150 144 137 122 118 110 110 116 105 107 107 106 106 90 81 67 34 358 325 321 2 10 23 357
147 142 142 138 142 146 138 152 153 146 127 129 126 122 116 104 110 108 103 102 75 78 67 71 23 323 334 79 29 351 359 353
167 159 159 157 153 155 163 153 141 131 133 127 120 117 108 121 111 111 112 129 124 97 80 57 321 302 73 76 27 11 11 18
170 167 165 167 167 166 166 151 141 145 136 128 123 128 131 143 161 147 162 160 143 138 160 352 291 194 157 50 78 79 34 352
176 173 172 170 168 168 162 146 150 148 136 131 132 140 149 132 74 283 179 157 137 119 80 282 266 193 131 124 123 139 102 336
188 185 183 181 173 158 159 159 152 137 133 134 137 121 129 81 169 85 186 127 115 113 261 272 272 192 186 168 128 108 84 68
216 189 150 150 153 154 155 152 139 139 129 120 125 106 81 51 18 206 122 116 203 251 262 264 258 215 215 163 148 136 124 34
70 118 146 159 156 162 166 150 133 127 127 120 119 93 75 135 144 90 220 261 290 265 249 268 279 210 173 160 154 161 171 208
49 98 161 171 168 152 126 126 125 113 115 109 101 106 94 61 65 349 6 323 269 253 254 258 264 189 182 173 167 177 181 272
23 32 49 80 103 106 116 114 100 95 87 73 62 40 59 61 34 5 315 275 281 265 254 257 262 197 188 178 174 174 196 258